Tracking 35331 objects as of 16-Sep-2026
HD Live streaming from Space Station
objects crossing your sky now

STARLINK-35804

Track STARLINK-35804 now!
10-day predictions
STARLINK-35804 is classified as:


NORAD ID: 66371
Int'l Code: 2025-254Z
Launch date: November 6, 2025
Source: United States (US)
Launch site: AIR FORCE WESTERN TEST RANGE (AFWTR)
Your satellite tracking list
Your tracking list is empty




NASA's NSSDC Master Catalog

Two Line Element Set (TLE):
1 66371U 25254Z   26259.15493592  .00030054  00000-0  89675-3 0  9993
2 66371  53.1583  63.6800 0001395  84.6447 275.4715 15.34410972 48193
Source of the keplerian elements: AFSPC